Regional Weather Roundup
Issued by NWS

Home | Current Version | Previous Version | Text Only | Print | Product List | Glossary On
Versions: 1 2 3 4 5 6 7 8 9 10 11 12 13 14 15 16 17 18 19 20 21 22 23 24 25 26 27 28 29 30 31 32 33 34 35 36 37 38 39 40 41 42 43 44 45 46 47 48 49 50
000
ASUS43 KLSX 231710
RWRMO

WEATHER SUMMARY FOR MISSOURI
NATIONAL WEATHER SERVICE SPRINGFIELD MO
1200 PM CDT SAT JUN 23 2018

NOTE: "FAIR" INDICATES FEW OR NO CLOUDS BELOW 12,000 FEET WITH NO
       SIGNIFICANT WEATHER AND/OR OBSTRUCTIONS TO VISIBILITY.
       CURRENT SKY AND/OR WEATHER CONDITIONS ARE NOT AVAILABLE FOR
       CHILLICOTHE AND FARMINGTON.

MOZ001>031-035>038-043-044-053-054-231800-
...NORTHERN AND WESTERN MISSOURI...

CITY           SKY/WX    TMP DP  RH WIND       PRES   REMARKS
KANSAS CTY INT PTSUNNY   74  63  68 NW3       29.83R
KANSAS C DTWN  CLOUDY    76  63  64 MISG      29.81S
LEE`S SUMMIT   PTSUNNY   74  64  71 W6        29.83S
ST JOSEPH      CLOUDY    73  66  78 NW5       29.82S
CHILLICOTHE      N/A     75  63  66 NW5       29.83R
KIRKSVILLE     MOSUNNY   75  65  70 CALM      29.81F

$$
MOZ066>068-077>081-088>096-101>105-231800-
...SOUTHWEST MISSOURI...

CITY           SKY/WX    TMP DP  RH WIND       PRES   REMARKS
SPRINGFIELD    PTSUNNY   82  63  52 SW9G20    29.81S
JOPLIN         MOSUNNY   80  67  64 SW8       29.83
BRANSON        PTSUNNY   81  63  54 W13       29.85R

$$
MOZ032>034-039>042-045>050-055>058-069>072-231800-
...CENTRAL MISSOURI...

CITY           SKY/WX    TMP DP  RH WIND       PRES   REMARKS
COLUMBIA       PTSUNNY   77  63  61 SW8       29.81S
JEFFERSON CITY CLOUDY    76  63  64 CALM      29.80S
ROLLA          PTSUNNY   76  64  66 VRB6      29.82F
SEDALIA        PTSUNNY   76  65  68 CALM      29.83R
WHITEMAN AFB   PTSUNNY   76  64  67 NW6       29.78
WARRENSBURG    PTSUNNY   75  61  60 CALM      29.82S
OSAGE BEACH    PTSUNNY   80  65  59 VRB7      29.81S

$$
MOZ051-052-059>065-231800-
...EAST CENTRAL MISSOURI...

CITY           SKY/WX    TMP DP  RH WIND       PRES   REMARKS
ST LOUIS INTL  CLOUDY    77  63  61 VRB5      29.79F
SPIRIT OF STL  CLOUDY    79  64  60 W6        29.79S
ST CHARLES     CLOUDY    74  64  71 SW3       29.79F

$$
MOZ072>076-082>087-097>100-106>115-231800-
...SOUTH CENTRAL AND SOUTHEAST MISSOURI...

CITY           SKY/WX    TMP DP  RH WIND       PRES   REMARKS
CAPE GIRARDEAU PTSUNNY   77  67  71 S7        29.81S
FARMINGTON     MOSUNNY   77  66  68 W5        29.82F
POPLAR BLUFF   FAIR      81  70  69 VRB7      29.80S
WEST PLAINS    SUNNY     83  66  56 S8        29.83S

$$




USA.gov is the U.S. government's official web portal to all federal, state and local government web resources and services.